This is the latest recevied weather packets stored in our database for station/object KJ4OVR-WX. If no packets are shown the sender has not sent any weather packets the latest 10 day(s).
| Time | Temp. | Humidity | Pressure | Rain* | Wind** | Luminosity | Snow |
|---|---|---|---|---|---|---|---|
| 1777986672 | 17.22° C | 67% | 1013.9 hPa | 0 mm | - | - | - |
| 1777986368 | 17.22° C | 67% | 1013.9 hPa | 0 mm | - | - | - |
| 1777985468 | 16.67° C | 69% | 1013.8 hPa | 0 mm | - | - | - |
| 1777984637 | 16.11° C | 73% | 1013.8 hPa | 0 mm | - | - | - |
| 1777984268 | 15.56° C | 73% | 1013.8 hPa | 0 mm | - | - | - |
| 1777981869 | 13.89° C | 75% | 1013.5 hPa | 0 mm | - | - | - |
| 1777980968 | 13.33° C | 75% | 1013.2 hPa | 0 mm | - | - | - |
| 1777980672 | 13.33° C | 74% | 1013.2 hPa | 0 mm | - | - | - |
| 1777980069 | 13.33° C | 73% | 1013 hPa | 0 mm | - | - | - |
| 1777979769 | 13.33° C | 73% | 1013 hPa | 0 mm | - | - | - |
| 1777977370 | 13.89° C | 67% | 1012.6 hPa | 0 mm | - | - | - |
| 1777977091 | 13.89° C | 67% | 1012.4 hPa | 0 mm | - | - | - |
| 1777976775 | 13.33° C | 67% | 1012.3 hPa | 0 mm | - | - | - |
| 1777976470 | 13.33° C | 67% | 1012.2 hPa | 0 mm | - | - | - |
| 1777976230 | 13.33° C | 67% | 1012.2 hPa | 0 mm | - | - | - |
| 1777975870 | 13.89° C | 67% | 1012.1 hPa | 0 mm | - | - | - |
| 1777975570 | 13.89° C | 67% | 1012.1 hPa | 0 mm | - | - | - |
| 1777975270 | 13.89° C | 67% | 1012.2 hPa | 0 mm | - | - | - |
| 1777974991 | 13.89° C | 67% | 1012.1 hPa | 0 mm | - | - | - |
| 1777974080 | 13.89° C | 67% | 1012.2 hPa | 0 mm | - | - | - |
| 1777973770 | 13.89° C | 67% | 1012.1 hPa | 0 mm | - | - | - |
| 1777973470 | 13.89° C | 67% | 1012.1 hPa | 0 mm | - | - | - |
| 1777973170 | 13.89° C | 67% | 1012.1 hPa | 0 mm | - | - | - |
| 1777972871 | 13.89° C | 67% | 1011.9 hPa | 0 mm | - | - | - |
| 1777972571 | 13.89° C | 67% | 1012 hPa | 0 mm | - | - | - |
* Rain latest hour (hover to see other rain measurements)
** Current wind speed in m/s (hover to see current wind gust speed)